• In Hungary
  • List of Countries
  • For 7 days
  • Water Temperature
  • Satellite Maps
  • Weather Map
  • News
  • Weather Widgets
  • user-avatar
    Login

    Hourly Weather Aurich

    Today, 17 December, Sunday

    Time Temperature Precipitation Wind Pressure Humidity
    00:00 +1°C° 0 mm 5 mps 760 mmHg 84%
    01:00 +1°C° 0 mm 5 mps 760 mmHg 83%
    02:00 +1°C° 0 mm 5 mps 761 mmHg 83%
    03:00 +1°C° 0 mm 5 mps 761 mmHg 82%
    04:00 +1°C° 0 mm 5 mps 762 mmHg 82%
    05:00 +1°C° 0 mm 4 mps 762 mmHg 81%
    06:00 +1°C° 0 mm 3 mps 763 mmHg 84%
    07:00 +1°C° 0 mm 3 mps 763 mmHg 83%
    08:00 +2°C° 0 mm 3 mps 764 mmHg 81%
    09:00 +3°C° 0 mm 2 mps 764 mmHg 80%
    10:00 +4°C° 0 mm 2 mps 765 mmHg 79%
    11:00 +4°C° 0 mm 2 mps 765 mmHg 77%
    12:00 +5°C° 0 mm 2 mps 765 mmHg 77%
    13:00 +3°C° 0 mm 3 mps 765 mmHg 81%
    14:00 +2°C° 0 mm 3 mps 765 mmHg 84%
    15:00 +1°C° 0 mm 4 mps 765 mmHg 88%
    16:00 +1°C° 0 mm 5 mps 765 mmHg 88%
    17:00 0°C° 0 mm 5 mps 764 mmHg 89%
    18:00 -1°C° 0 mm 6 mps 764 mmHg 89%
    19:00 -1°C° 0.2 mm 6 mps 764 mmHg 89%
    20:00 0°C° 0.2 mm 7 mps 763 mmHg 89%
    21:00 0°C° 0.2 mm 7 mps 763 mmHg 88%
    22:00 0°C° 0.9 mm 8 mps 762 mmHg 89%
    23:00 -1°C° 0.9 mm 8 mps 762 mmHg 89%

    Tomorrow, 18 December, Monday

    Time Temperature Precipitation Wind Pressure Humidity
    00:00 -1°C° 0.9 mm 8 mps 761 mmHg 90%
    01:00 -1°C° 0.4 mm 8 mps 761 mmHg 91%
    02:00 -1°C° 0.4 mm 7 mps 761 mmHg 92%
    03:00 -1°C° 0.4 mm 6 mps 761 mmHg 93%
    04:00 +1°C° 0.1 mm 6 mps 761 mmHg 94%
    05:00 +1°C° 0.1 mm 6 mps 762 mmHg 94%
    06:00 +1°C° 0.1 mm 5 mps 762 mmHg 95%
    07:00 +2°C° 0 mm 5 mps 763 mmHg 94%
    08:00 +2°C° 0 mm 5 mps 764 mmHg 94%
    09:00 +2°C° 0 mm 5 mps 764 mmHg 93%
    10:00 +3°C° 0 mm 5 mps 765 mmHg 93%
    11:00 +4°C° 0 mm 4 mps 765 mmHg 92%
    12:00 +4°C° 0 mm 4 mps 766 mmHg 92%
    13:00 +4°C° 0 mm 4 mps 766 mmHg 93%
    14:00 +3°C° 0 mm 3 mps 767 mmHg 93%
    15:00 +3°C° 0 mm 3 mps 767 mmHg 93%
    16:00 +3°C° 0 mm 3 mps 768 mmHg 93%
    17:00 +3°C° 0 mm 4 mps 768 mmHg 93%
    18:00 +3°C° 0 mm 4 mps 769 mmHg 93%
    19:00 +3°C° 0 mm 4 mps 769 mmHg 92%
    20:00 +3°C° 0 mm 4 mps 770 mmHg 91%
    21:00 +3°C° 0 mm 4 mps 770 mmHg 90%
    22:00 +3°C° 0 mm 4 mps 770 mmHg 90%
    23:00 +3°C° 0 mm 4 mps 771 mmHg 89%

    Day after tomorrow, 19 December, Tuesday

    Time Temperature Precipitation Wind Pressure Humidity
    00:00 +3°C° 0 mm 4 mps 771 mmHg 89%
    01:00 +3°C° 0 mm 4 mps 771 mmHg 89%
    02:00 +3°C° 0 mm 4 mps 772 mmHg 90%
    03:00 +3°C° 0 mm 4 mps 772 mmHg 90%
    04:00 +3°C° 0 mm 4 mps 772 mmHg 91%
    05:00 +3°C° 0 mm 4 mps 772 mmHg 92%
    06:00 +3°C° 0 mm 4 mps 772 mmHg 92%
    07:00 +3°C° 0 mm 4 mps 773 mmHg 93%
    08:00 +4°C° 0 mm 4 mps 773 mmHg 93%
    09:00 +4°C° 0 mm 4 mps 773 mmHg 93%
    10:00 +4°C° 0 mm 4 mps 773 mmHg 91%
    11:00 +5°C° 0 mm 4 mps 773 mmHg 90%
    12:00 +6°C° 0 mm 4 mps 773 mmHg 88%
    13:00 +5°C° 0 mm 4 mps 773 mmHg 89%
    14:00 +5°C° 0 mm 5 mps 773 mmHg 90%
    15:00 +5°C° 0 mm 5 mps 773 mmHg 90%
    16:00 +5°C° 0 mm 5 mps 773 mmHg 91%
    17:00 +5°C° 0 mm 5 mps 773 mmHg 91%
    18:00 +5°C° 0 mm 5 mps 773 mmHg 92%
    19:00 +3°C° 0 mm 5 mps 773 mmHg 92%
    20:00 +3°C° 0 mm 5 mps 773 mmHg 93%
    21:00 +3°C° 0 mm 5 mps 773 mmHg 94%
    22:00 +3°C° 0 mm 5 mps 773 mmHg 94%
    23:00 +4°C° 0 mm 4 mps 772 mmHg 94%

    20 December, Wednesday

    Time Temperature Precipitation Wind Pressure Humidity
    00:00 +4°C° 0 mm 4 mps 772 mmHg 94%
    01:00 +4°C° 0 mm 4 mps 772 mmHg 94%
    02:00 +4°C° 0 mm 4 mps 772 mmHg 95%
    03:00 +4°C° 0 mm 4 mps 772 mmHg 95%
    04:00 +4°C° 0 mm 4 mps 772 mmHg 95%
    05:00 +4°C° 0 mm 4 mps 772 mmHg 96%
    06:00 +4°C° 0 mm 4 mps 771 mmHg 96%
    07:00 +5°C° 0 mm 3 mps 772 mmHg 96%
    08:00 +5°C° 0 mm 3 mps 772 mmHg 97%
    09:00 +5°C° 0 mm 3 mps 772 mmHg 97%
    10:00 +7°C° 0 mm 3 mps 772 mmHg 96%
    11:00 +6°C° 0 mm 4 mps 772 mmHg 95%
    12:00 +7°C° 0 mm 4 mps 772 mmHg 94%
    13:00 +7°C° 0 mm 4 mps 772 mmHg 95%
    14:00 +7°C° 0 mm 4 mps 771 mmHg 96%
    15:00 +7°C° 0 mm 4 mps 771 mmHg 96%
    16:00 +7°C° 0 mm 4 mps 771 mmHg 96%
    17:00 +7°C° 0 mm 4 mps 771 mmHg 96%
    18:00 +7°C° 0 mm 4 mps 771 mmHg 97%
    19:00 +7°C° 0 mm 5 mps 771 mmHg 97%
    20:00 +7°C° 0 mm 5 mps 771 mmHg 97%
    21:00 +7°C° 0 mm 5 mps 771 mmHg 96%
    22:00 +7°C° 0.1 mm 5 mps 771 mmHg 96%
    23:00 +7°C° 0.1 mm 6 mps 771 mmHg 96%

    21 December, Thursday

    Time Temperature Precipitation Wind Pressure Humidity
    00:00 +7°C° 0.1 mm 6 mps 771 mmHg 96%
    01:00 +7°C° 0 mm 6 mps 771 mmHg 96%
    02:00 +7°C° 0 mm 6 mps 771 mmHg 96%
    03:00 +7°C° 0 mm 6 mps 771 mmHg 95%
    04:00 +7°C° 0 mm 5 mps 772 mmHg 95%
    05:00 +6°C° 0 mm 5 mps 772 mmHg 94%
    06:00 +5°C° 0 mm 4 mps 772 mmHg 93%
    07:00 +5°C° 0 mm 4 mps 773 mmHg 92%
    08:00 +5°C° 0 mm 4 mps 773 mmHg 91%
    09:00 +5°C° 0 mm 3 mps 773 mmHg 91%
    10:00 +5°C° 0 mm 4 mps 773 mmHg 88%
    11:00 +6°C° 0 mm 4 mps 773 mmHg 85%
    12:00 +6°C° 0 mm 4 mps 773 mmHg 83%
    13:00 +6°C° 0 mm 4 mps 773 mmHg 84%
    14:00 +6°C° 0 mm 4 mps 772 mmHg 86%
    15:00 +5°C° 0 mm 5 mps 772 mmHg 88%
    16:00 +5°C° 0 mm 5 mps 772 mmHg 89%
    17:00 +5°C° 0 mm 5 mps 772 mmHg 90%
    18:00 +4°C° 0 mm 6 mps 772 mmHg 91%
    19:00 +4°C° 0 mm 6 mps 772 mmHg 91%
    20:00 +4°C° 0 mm 7 mps 772 mmHg 92%
    21:00 +4°C° 0 mm 7 mps 772 mmHg 92%
    22:00 +4°C° 0 mm 7 mps 772 mmHg 91%
    23:00 +4°C° 0 mm 7 mps 772 mmHg 89%

    22 December, Friday

    Time Temperature Precipitation Wind Pressure Humidity
    00:00 +4°C° 0 mm 7 mps 772 mmHg 87%
    01:00 +4°C° 0 mm 7 mps 772 mmHg 87%
    02:00 +4°C° 0 mm 8 mps 772 mmHg 86%
    03:00 +2°C° 0 mm 8 mps 772 mmHg 86%
    04:00 +2°C° 0 mm 8 mps 771 mmHg 85%
    05:00 +2°C° 0 mm 8 mps 771 mmHg 85%
    06:00 +2°C° 0 mm 9 mps 771 mmHg 84%
    07:00 +3°C° 0.2 mm 9 mps 771 mmHg 83%
    08:00 +3°C° 0.2 mm 9 mps 771 mmHg 82%
    09:00 +3°C° 0.2 mm 10 mps 771 mmHg 81%
    10:00 +3°C° 0.1 mm 10 mps 771 mmHg 77%
    11:00 +5°C° 0.1 mm 10 mps 771 mmHg 74%
    12:00 +5°C° 0.1 mm 10 mps 770 mmHg 70%
    13:00 +3°C° 0.1 mm 10 mps 770 mmHg 70%
    14:00 +3°C° 0.1 mm 10 mps 770 mmHg 69%
    15:00 +2°C° 0.1 mm 10 mps 770 mmHg 69%
    16:00 +2°C° 0.1 mm 10 mps 770 mmHg 69%
    17:00 +2°C° 0.1 mm 9 mps 770 mmHg 69%
    18:00 +2°C° 0.1 mm 9 mps 770 mmHg 70%
    19:00 +2°C° 0.1 mm 9 mps 770 mmHg 70%
    20:00 +2°C° 0.1 mm 9 mps 770 mmHg 70%
    21:00 +2°C° 0.1 mm 9 mps 770 mmHg 70%
    22:00 +2°C° 0.2 mm 9 mps 770 mmHg 70%
    23:00 +2°C° 0.2 mm 9 mps 770 mmHg 70%
    Show more